Powrót do katalogu

FENGYUN 1C DEB

AktywnyPO
NORAD 33599·DEBRIS·🇨🇳 China

Wystrzelony May 10, 1999 z Taiyuan Satellite Launch Center

Loading…

Następne Przeloty (najbliższe 24 godziny)

TLE

Starzejące sięSource: Space-Track

Epoka: Sep 5, 2026, 08:43 UTC

1 33599U 99025DCG 26248.36379316  .00034550  00000-0  82929-3 0  9994
2 33599  96.5840 290.1110 0079212  60.9674 299.9480 15.37997087700712

Śledź FENGYUN 1C DEB w czasie rzeczywistym z AllMySat

Download on the App Store